Wind_Speed
44 47 49 51 53 55 57 59 60 62 63 64 64 65 65 66 66 67 67 67 68 68 68 69 69 70 71 71 71 71 71 70 67 64 65 65 65 65 64 65 64 63 63
50 52 54 57 59 60 62 63 65 66 66 67 68 68 68 68 69 69 69 69 69 68 69 69 69 70 69 69 69 69 69 68 67 64 64 64 64 64 64 64 63 63 63
56 58 60 62 64 65 67 68 69 69 70 71 71 71 71 71 71 71 71 70 70 69 69 69 68 68 67 67 67 67 67 67 66 65 63 63 62 62 63 63 63 63 64
61 64 66 68 69 70 71 72 73 74 74 74 74 73 73 72 72 72 72 71 70 70 69 68 67 66 66 66 66 65 65 65 64 63 62 61 61 62 63 62 63 64 65
66 69 70 72 74 75 76 77 77 78 77 76 75 74 74 73 73 73 72 71 70 69 68 67 66 65 65 65 64 63 63 63 62 62 62 62 61 62 63 63 63 64 64
72 74 75 77 78 79 79 80 79 78 77 76 75 74 73 72 72 71 70 69 67 66 65 64 63 63 63 63 62 61 61 61 61 61 61 60 60 62 63 64 64 65 64
77 78 80 81 81 82 82 80 79 78 76 75 73 72 70 69 68 67 67 65 64 62 61 60 60 59 60 59 59 60 60 60 60 60 60 59 60 61 62 63 64 64 63
80 82 83 83 83 82 81 79 77 75 73 71 69 68 66 65 64 63 61 60 58 57 57 56 55 55 56 57 57 58 58 59 60 60 59 59 60 61 62 63 64 64 63
83 84 84 83 82 80 78 76 74 72 69 67 66 64 63 61 60 58 57 55 53 52 52 51 52 52 53 54 54 55 55 56 57 58 59 59 59 60 61 62 63 63 61
84 84 83 81 80 77 75 72 69 67 65 63 61 59 58 56 54 53 52 50 49 48 48 48 49 50 51 52 52 52 52 53 55 55 56 56 57 57 59 60 60 60 59
84 82 80 77 75 73 69 66 64 62 60 57 55 54 53 51 49 49 48 47 46 45 45 46 46 47 48 49 50 50 51 52 53 53 53 53 53 54 55 56 57 57 56
81 78 75 72 69 66 63 60 59 57 55 53 51 49 48 47 46 45 44 43 43 42 42 43 44 45 46 47 47 48 49 50 50 50 50 50 50 51 52 53 53 54 54
76 72 68 65 62 60 59 56 54 53 52 49 47 45 43 43 43 42 41 41 42 41 41 42 43 43 44 44 45 45 46 46 45 45 44 45 47 48 49 50 51 51 50
70 66 62 60 57 55 54 53 51 50 48 46 44 42 41 40 40 40 40 41 41 41 41 41 42 42 42 42 43 43 43 42 42 41 42 43 44 45 46 47 47 47 47
63 60 57 56 54 52 50 49 48 46 46 44 42 41 39 38 38 39 39 39 39 40 41 40 41 41 41 41 42 41 40 40 39 40 41 41 42 43 44 44 44 45 45
59 56 54 52 51 49 47 45 44 44 44 43 41 40 39 39 38 39 39 39 39 38 38 38 38 38 38 38 38 38 38 38 39 39 40 40 41 41 41 41 42 43 42
56 53 51 50 48 46 45 43 41 40 40 41 40 40 40 39 39 38 38 37 36 36 35 35 35 35 35 35 35 35 36 37 37 38 38 38 38 38 38 39 40 40 39
52 51 50 48 46 45 43 42 40 39 37 37 38 39 39 38 37 36 35 34 34 34 34 34 34 34 34 33 33 34 35 35 36 36 36 36 36 36 36 37 37 37 37
50 49 48 46 45 43 42 41 40 38 37 36 36 36 36 35 34 33 32 32 32 32 33 33 33 32 32 32 32 32 33 33 33 33 33 33 33 33 34 34 34 35 35
49 48 46 44 43 42 41 39 38 36 36 35 34 33 32 32 31 30 30 30 30 31 30 30 30 30 30 30 30 31 31 31 31 31 31 31 31 31 31 32 32 32 32
47 45 44 43 41 40 39 37 35 35 34 33 33 32 31 30 29 28 28 29 29 29 29 29 28 28 29 29 29 29 29 29 29 29 28 28 28 29 29 29 29 29 28
45 44 43 41 39 38 37 35 34 34 34 32 31 31 30 29 29 28 28 28 28 28 28 28 28 28 28 28 28 28 28 27 26 26 26 26 26 26 26 27 26 26 26
43 42 41 39 37 36 34 33 34 33 33 32 31 30 29 29 28 28 28 27 27 27 27 26 26 26 26 26 25 25 25 24 24 23 23 24 24 24 25 25 25 25 25
42 40 38 36 35 33 32 32 32 32 32 31 30 29 27 27 27 27 26 26 26 25 25 25 25 24 23 23 23 23 22 22 21 22 22 22 23 23 24 24 23 23 23
40 38 36 34 32 31 30 30 30 30 30 29 28 26 26 25 25 25 24 24 24 24 23 23 22 22 22 21 21 20 20 20 20 20 21 22 22 23 23 22 21 21 21
37 35 33 32 30 29 29 28 29 29 28 27 26 25 24 23 23 23 22 22 22 22 21 20 20 20 19 19 18 18 18 19 19 20 21 22 21 21 19 19 19 19 18
Wind_Direction
305 305 304 303 302 301 300 298 297 295 294 293 291 290 289 287 286 285 285 284 282 281 280 279 279 278 278 278 278 279 280 280 281 280 280 279 279 278 277 277 277 276 276
305 304 304 303 302 301 300 298 297 295 294 293 291 290 288 287 286 285 284 283 282 282 280 280 279 278 278 278 278 278 278 278 279 278 278 278 277 277 276 277 277 277 276
305 304 303 303 302 301 300 299 297 296 295 293 292 290 288 287 285 284 283 282 282 281 280 280 279 278 278 278 277 277 277 277 278 278 277 277 276 276 276 276 276 276 276
304 304 303 303 302 301 300 299 298 297 296 294 293 291 289 286 285 283 282 281 280 280 280 279 278 278 278 277 277 277 277 277 277 277 277 276 275 275 275 276 275 276 276
304 304 304 303 303 302 301 300 299 298 297 295 293 290 288 286 284 283 282 281 280 280 279 278 278 277 276 276 277 277 277 277 277 276 276 276 275 275 275 275 275 276 276
305 304 304 303 303 302 302 301 300 298 297 295 293 291 289 287 285 284 283 282 281 280 279 278 277 276 276 275 275 275 276 276 276 276 276 276 276 275 275 275 275 276 276
305 305 305 304 304 303 303 301 300 298 296 294 293 291 289 288 286 285 284 283 282 280 279 278 277 276 276 275 275 275 275 275 275 275 276 276 276 276 276 276 276 277 277
306 306 306 305 305 304 303 301 300 298 296 294 292 291 290 288 286 285 284 284 283 281 279 278 277 277 276 276 276 276 277 277 276 276 276 276 276 276 276 277 277 277 278
307 307 307 306 305 304 303 301 300 298 296 294 293 291 290 289 287 286 285 285 283 282 280 279 278 277 277 277 277 277 277 277 277 277 277 277 277 277 277 278 278 278 278
308 308 308 307 306 305 303 301 300 298 296 295 294 293 291 290 289 288 287 286 284 282 281 280 279 278 278 278 279 279 278 278 278 279 279 279 279 279 278 278 279 279 280
309 309 308 307 306 305 303 302 300 299 298 297 296 295 293 291 291 290 289 287 285 284 282 281 281 281 281 280 281 281 280 280 280 281 280 280 280 279 279 279 280 281 282
310 309 309 308 306 305 304 303 302 301 300 299 298 296 294 293 292 291 290 288 286 285 284 283 283 283 283 283 283 283 282 282 282 281 281 280 280 280 280 281 282 283 284
311 310 309 308 307 306 305 304 304 303 302 301 299 298 296 295 294 293 291 289 288 286 286 286 286 285 285 285 285 285 285 286 284 282 281 281 281 281 282 282 283 284 286
312 311 310 309 308 307 306 305 304 304 303 302 301 299 297 295 294 293 292 291 289 289 289 288 288 286 286 286 287 288 288 288 286 285 284 283 283 283 283 283 284 286 288
313 312 311 310 309 308 306 306 306 305 304 303 302 300 298 296 295 294 293 291 290 289 290 290 289 288 287 287 288 288 288 289 288 287 286 285 285 285 285 285 287 288 290
314 313 312 311 310 309 308 307 307 307 305 304 303 302 301 299 298 296 295 293 292 292 292 292 291 290 290 290 290 290 290 290 290 289 288 287 287 286 287 288 289 291 292
314 314 313 313 312 311 310 308 307 307 306 305 304 304 303 302 300 298 297 296 295 295 295 295 295 294 293 293 292 291 291 292 291 291 290 289 288 288 289 290 292 293 293
315 314 314 315 314 312 311 310 309 308 307 306 305 305 304 303 301 300 298 297 297 296 296 296 296 297 296 295 294 294 294 294 293 292 292 291 291 291 292 293 294 294 295
315 315 315 315 314 313 312 311 311 310 309 308 308 307 306 305 304 303 301 299 299 299 298 297 298 299 299 298 297 297 296 296 295 294 294 294 294 294 295 295 296 296 297
315 315 315 315 314 313 313 313 312 311 311 311 310 309 308 308 307 304 303 302 302 302 301 301 301 301 301 301 301 300 299 299 298 297 297 296 296 297 298 298 299 298 299
314 315 315 315 314 314 314 314 313 313 313 313 311 310 310 310 309 307 305 305 305 305 305 305 304 303 303 303 303 303 302 302 301 300 299 298 299 300 301 302 302 302 303
313 314 315 314 314 314 314 313 313 314 314 313 313 312 311 310 309 308 307 307 307 307 307 307 306 305 306 306 306 306 306 305 304 302 302 302 303 305 305 306 305 305 305
313 314 315 314 313 313 313 313 313 314 314 314 313 312 311 310 310 310 310 309 309 310 311 310 310 310 310 310 310 310 310 310 309 307 307 307 308 308 308 309 308 307 308
313 314 313 313 312 312 312 313 314 315 316 316 315 314 313 313 313 313 313 313 313 314 314 314 315 316 316 316 316 316 315 315 314 313 312 312 312 312 312 312 311 311 311
313 313 312 312 312 312 312 313 315 316 318 318 318 317 316 316 316 317 318 319 319 319 319 320 320 321 321 322 323 322 322 322 321 320 319 319 318 317 317 316 315 315 315
312 312 312 311 311 312 313 314 315 317 319 319 319 320 320 320 321 322 322 323 325 326 326 327 327 328 329 330 330 330 330 329 328 327 326 326 324 323 322 322 321 322 321
Height
5708 5702 5696 5690 5684 5678 5671 5665 5658 5651 5645 5638 5631 5625 5618 5612 5605 5599 5594 5589 5583 5579 5574 5569 5565 5560 5556 5552 5548 5544 5541 5537 5536 5538 5533 5529 5525 5521 5517 5514 5513 5512 5510
5695 5689 5683 5676 5670 5663 5655 5648 5641 5634 5626 5619 5612 5605 5599 5592 5585 5579 5574 5568 5563 5559 5554 5548 5545 5539 5536 5531 5527 5524 5521 5517 5515 5516 5514 5509 5505 5501 5498 5495 5494 5492 5490
5682 5675 5668 5661 5653 5646 5638 5630 5622 5614 5606 5599 5591 5585 5578 5571 5564 5558 5552 5547 5542 5538 5533 5528 5524 5518 5515 5511 5507 5504 5501 5498 5495 5495 5494 5490 5486 5482 5478 5477 5474 5472 5470
5667 5660 5652 5644 5636 5627 5619 5610 5602 5593 5585 5578 5570 5562 5555 5549 5542 5535 5530 5525 5521 5516 5512 5507 5503 5498 5494 5490 5487 5485 5481 5478 5476 5474 5473 5471 5467 5463 5459 5457 5455 5452 5450
5651 5643 5634 5625 5616 5607 5598 5589 5580 5571 5562 5554 5547 5539 5532 5525 5518 5512 5507 5503 5499 5495 5490 5486 5482 5477 5474 5470 5468 5466 5462 5460 5457 5455 5454 5451 5449 5444 5440 5437 5435 5432 5430
5633 5624 5615 5606 5596 5586 5576 5567 5557 5548 5539 5530 5522 5515 5508 5501 5494 5489 5484 5481 5477 5473 5469 5465 5460 5457 5454 5451 5449 5446 5444 5442 5439 5436 5434 5432 5429 5424 5420 5417 5415 5413 5413
5614 5604 5594 5584 5574 5564 5554 5544 5534 5525 5516 5507 5499 5491 5485 5478 5471 5467 5462 5458 5456 5452 5448 5444 5441 5438 5434 5432 5430 5428 5426 5423 5421 5418 5416 5413 5409 5405 5401 5398 5395 5393 5392
5594 5583 5572 5562 5552 5541 5531 5521 5511 5501 5493 5485 5477 5469 5463 5457 5450 5446 5441 5438 5435 5432 5429 5426 5423 5420 5416 5414 5412 5410 5407 5404 5401 5398 5398 5395 5390 5386 5382 5379 5375 5373 5372
5573 5562 5551 5539 5528 5518 5508 5498 5488 5479 5471 5463 5456 5448 5442 5437 5431 5427 5423 5420 5418 5414 5411 5408 5405 5403 5399 5396 5395 5394 5391 5387 5382 5379 5377 5375 5372 5367 5363 5359 5356 5354 5353
5553 5541 5529 5516 5505 5495 5485 5476 5467 5458 5450 5443 5437 5430 5423 5419 5414 5410 5406 5404 5401 5398 5395 5392 5389 5386 5383 5380 5378 5376 5374 5370 5365 5362 5359 5356 5353 5349 5344 5340 5338 5335 5333
5531 5520 5508 5496 5484 5474 5464 5456 5446 5439 5432 5425 5419 5413 5407 5402 5398 5394 5391 5388 5386 5383 5381 5377 5374 5370 5368 5365 5362 5360 5357 5352 5349 5345 5342 5339 5335 5332 5327 5324 5320 5317 5315
5512 5501 5489 5477 5466 5455 5446 5438 5430 5422 5416 5410 5404 5399 5393 5388 5384 5380 5377 5374 5371 5369 5366 5363 5360 5356 5353 5350 5347 5344 5340 5336 5332 5329 5326 5323 5319 5315 5312 5308 5304 5301 5297
5493 5481 5470 5460 5450 5439 5430 5423 5416 5408 5401 5396 5390 5386 5381 5376 5371 5367 5364 5361 5358 5355 5353 5350 5346 5342 5339 5335 5332 5329 5325 5320 5317 5314 5311 5307 5304 5301 5297 5293 5289 5285 5282
5474 5464 5454 5444 5436 5427 5417 5409 5402 5395 5389 5383 5378 5374 5370 5365 5360 5356 5353 5349 5346 5342 5339 5336 5332 5329 5325 5322 5318 5315 5311 5306 5303 5300 5297 5294 5290 5287 5283 5279 5275 5271 5268
5458 5449 5439 5430 5421 5414 5406 5398 5390 5384 5377 5372 5367 5362 5358 5355 5350 5345 5341 5338 5334 5331 5327 5324 5319 5316 5312 5309 5305 5301 5298 5294 5290 5287 5284 5280 5277 5273 5269 5265 5262 5258 5254
5443 5435 5426 5417 5409 5401 5394 5388 5381 5374 5367 5361 5355 5351 5347 5343 5338 5334 5330 5326 5322 5318 5315 5311 5307 5303 5300 5296 5293 5289 5286 5282 5279 5275 5271 5268 5264 5261 5257 5253 5249 5244 5240
5430 5422 5414 5406 5398 5390 5383 5377 5371 5366 5359 5352 5346 5341 5336 5332 5327 5323 5319 5315 5311 5307 5304 5300 5296 5292 5288 5285 5282 5278 5275 5271 5267 5264 5260 5256 5252 5249 5245 5241 5236 5232 5228
5418 5410 5402 5395 5387 5380 5373 5367 5360 5355 5351 5345 5338 5332 5327 5322 5317 5312 5308 5304 5301 5297 5293 5290 5286 5282 5278 5275 5271 5268 5264 5260 5257 5253 5249 5245 5242 5238 5234 5230 5225 5221 5217
5407 5399 5392 5385 5377 5370 5364 5357 5351 5346 5340 5335 5330 5324 5318 5313 5308 5303 5299 5295 5292 5288 5284 5280 5276 5273 5269 5265 5261 5258 5254 5250 5246 5242 5239 5235 5232 5228 5224 5220 5215 5211 5206
5397 5389 5381 5375 5368 5361 5355 5349 5343 5337 5332 5326 5321 5315 5310 5305 5300 5296 5291 5287 5283 5279 5275 5271 5268 5264 5260 5256 5253 5249 5245 5241 5237 5233 5230 5226 5222 5218 5214 5210 5206 5201 5197
5386 5379 5372 5365 5358 5352 5346 5340 5335 5329 5324 5318 5313 5307 5302 5298 5293 5289 5284 5280 5276 5272 5268 5264 5260 5256 5252 5249 5245 5240 5236 5233 5229 5225 5221 5218 5214 5210 5206 5201 5197 5192 5188
5376 5369 5363 5356 5350 5344 5338 5332 5327 5322 5316 5311 5306 5300 5295 5290 5286 5282 5277 5273 5269 5265 5261 5257 5253 5249 5245 5241 5237 5233 5229 5225 5221 5218 5214 5210 5206 5202 5198 5194 5189 5185 5181
5366 5360 5354 5347 5341 5336 5330 5325 5320 5314 5309 5303 5298 5293 5288 5284 5279 5275 5271 5266 5262 5258 5254 5250 5246 5242 5238 5234 5230 5227 5223 5219 5215 5211 5208 5204 5200 5196 5191 5187 5183 5178 5174
5356 5351 5345 5339 5334 5328 5323 5318 5313 5308 5302 5296 5291 5286 5281 5277 5273 5269 5264 5260 5256 5252 5248 5244 5240 5237 5233 5229 5225 5221 5217 5213 5210 5206 5202 5198 5194 5190 5185 5181 5176 5172 5167
5347 5342 5336 5331 5326 5321 5316 5312 5307 5301 5296 5290 5285 5280 5276 5271 5267 5263 5259 5255 5251 5247 5243 5239 5236 5232 5228 5224 5220 5217 5213 5209 5205 5202 5197 5193 5189 5184 5180 5175 5171 5166 5162
5338 5333 5328 5323 5319 5314 5310 5305 5301 5295 5290 5285 5280 5275 5271 5266 5262 5259 5255 5251 5247 5243 5239 5235 5232 5228 5224 5221 5217 5213 5210 5206 5202 5198 5193 5189 5184 5180 5175 5171 5167 5162 5158